Lytton, British Columbia

5:43 AM PDT on March 24, 2017 (GMT -0700)
Lytton

Weather History for CWLY - January, 2014

Change the Weather History Date:

Friday, January 31, 2014

  Actual Average Record
Temperature  
Mean Temperature 20 °F -  
Max Temperature 26 °F 40 °F 51 °F (2005)
Min Temperature 14 °F 27 °F 10 °F (2011)
Degree Days  
Heating Degree Days 45    
Moisture  
Dew Point 9 °F    
Average Humidity 65    
Maximum Humidity 79    
Minimum Humidity 50    
Precipitation  
Precipitation 0.00 in 0.05 in - ()
Sea Level Pressure  
Sea Level Pressure 30.26 in    
Wind  
Wind Speed 6 mph ()    
Max Wind Speed 10 mph    
Max Gust Speed 18 mph    
Visibility 9.0 miles    
Events      
Averages and records for this station are not official NWS values.
T = Trace of Precipitation, MM = Missing Value Source: Averaged Metar Reports

Daily Weather History Graph

Daily Weather History Graph

Search for Another Location

Airport or City:

Trip Planner

Search our weather history database for the weather conditions in past years. The results will help you decide how hot, cold, wet, or windy it might be!

Date:

Astronomy

Jan. 31, 2014 Rise Set
Actual Time 7:41 AM PST 4:58 PM PST
Civil Twilight 7:06 AM PST 5:33 PM PST
Nautical Twilight 6:27 AM PST 6:12 PM PST
Astronomical Twilight 5:49 AM PST 6:50 PM PST
Moon 7:44 AM PST (1/31) 6:43 PM PST (1/31)
Length of Visible Light 10h 27m
Length of Day
9h 16m
New Moon, 1% of the Moon is Illuminated
Jan 31
New Moon
Feb 6
First Quarter
Feb 14
Full
Feb 22
Last Quarter
Mar 1
New

Hourly Weather History & Observations

Time (PST) Temp. Windchill Dew Point Humidity Pressure Visibility Wind Dir Wind Speed Gust Speed Precip Events Conditions
12:00 AM 23.0 °F 12.4 °F 10.4 °F 59% 30.18 in 9.0 mi Variable 10.4 mph 18.4 mph N/A   Clear
1:00 AM 21.2 °F 10.1 °F 10.4 °F 63% 30.18 in 9.0 mi North 10.4 mph 17.3 mph N/A   Clear
2:00 AM 19.4 °F 11.5 °F 10.4 °F 68% 30.20 in 9.0 mi Variable 5.8 mph - N/A   Clear
3:00 AM 19.4 °F 14.3 °F 8.6 °F 63% 30.21 in 9.0 mi Variable 3.5 mph - N/A   Clear
4:00 AM 17.6 °F 10.7 °F 8.6 °F 68% 30.22 in 9.0 mi NNE 4.6 mph - N/A   Clear
5:00 AM 17.6 °F 5.7 °F 8.6 °F 68% 30.24 in 9.0 mi North 10.4 mph 17.3 mph N/A   Clear
6:00 AM 15.8 °F 5.1 °F 6.8 °F 68% 30.25 in 9.0 mi NNE 8.1 mph 18.4 mph N/A   Clear
7:00 AM 15.8 °F 3.4 °F 6.8 °F 68% 30.27 in 9.0 mi NNE 10.4 mph - N/A   Clear
8:00 AM 14.0 °F 3.9 °F 6.8 °F 73% 30.28 in 9.0 mi North 6.9 mph - N/A   Clear
9:00 AM 14.0 °F 5.1 °F 6.8 °F 73% 30.31 in 9.0 mi North 5.8 mph - N/A   Clear
10:00 AM 17.6 °F 8.2 °F 6.8 °F 63% 30.30 in 9.0 mi NNE 6.9 mph - N/A   Clear
11:00 AM 19.4 °F 9.5 °F 6.8 °F 58% 30.29 in 9.0 mi North 8.1 mph - N/A   Clear
12:00 PM 23.0 °F 12.4 °F 8.6 °F 54% 30.28 in 9.0 mi North 10.4 mph - N/A   Clear
1:00 PM 24.8 °F 16.9 °F 8.6 °F 50% 30.25 in 9.0 mi NNE 6.9 mph - N/A   Clear
2:00 PM 26.6 °F 19.1 °F 10.4 °F 51% 30.24 in 9.0 mi North 6.9 mph - N/A   Clear
3:00 PM 26.6 °F 22.6 °F 10.4 °F 51% 30.23 in 9.0 mi North 3.5 mph - N/A   Clear
4:00 PM 24.8 °F - 10.4 °F 54% 30.25 in 9.0 mi Variable 2.3 mph - N/A   Clear
5:00 PM 23.0 °F 14.7 °F 10.4 °F 59% 30.25 in 9.0 mi NNE 6.9 mph - N/A   Clear
6:00 PM 21.2 °F 13.6 °F 12.2 °F 68% 30.27 in 9.0 mi NNE 5.8 mph - N/A   Clear
7:00 PM 19.4 °F 11.5 °F 12.2 °F 74% 30.28 in 9.0 mi NNE 5.8 mph - N/A   Clear
8:00 PM 19.4 °F 11.5 °F 12.2 °F 74% 30.29 in 9.0 mi NNE 5.8 mph - N/A   Clear
9:00 PM 17.6 °F 10.7 °F 12.2 °F 79% 30.31 in 9.0 mi NE 4.6 mph - N/A   Clear
10:00 PM 17.6 °F 7.3 °F 10.4 °F 73% 30.32 in 9.0 mi NNE 8.1 mph - N/A   Clear
11:00 PM 15.8 °F - 10.4 °F 79% 30.32 in 9.0 mi Variable 2.3 mph - N/A   Clear